| time (UTC) | temp F | wind direction | speed MPH | gust MPH | rain 1hr in | rain 24hr in | rain mn in | humidity % | barometer mb |
| 20260902054515 | 69 | 0.0 | 0.0 | 0.00 | 0.06 | 0.06 | 82 | 1020.3 | |
| 20260902053635 | 69 | 0.0 | 0.0 | 0.00 | 0.06 | 0.06 | 82 | 1019.9 | |
| 20260902050515 | 70 | 0 | 2.0 | 4.0 | 0.00 | 0.06 | 0.06 | 82 | 1020.4 |
| 20260902045515 | 70 | 0.0 | 2.0 | 0.00 | 0.06 | 0.06 | 82 | 1020.1 | |
| 20260902044635 | 71 | 0 | 1.0 | 2.0 | 0.00 | 0.06 | 0.06 | 81 | 1020.4 |
| 20260902043555 | 71 | 0 | 1.0 | 2.0 | 0.00 | 0.06 | 0.06 | 80 | 1020.5 |
| 20260902042555 | 71 | 0 | 1.0 | 6.0 | 0.00 | 0.06 | 0.06 | 81 | 1020.6 |
| 20260902040515 | 71 | 0 | 0.0 | 3.0 | 0.00 | 0.06 | 0.06 | 80 | 1020.4 |
| 20260902035515 | 71 | 0 | 1.0 | 3.0 | 0.00 | 0.06 | 0.06 | 81 | 1020.0 |
| 20260902033635 | 70 | 0.0 | 0.0 | 0.00 | 0.06 | 0.06 | 81 | 1019.9 | |
| 20260902032555 | 70 | 0.0 | 0.0 | 0.00 | 0.06 | 0.06 | 82 | 1019.6 | |
| 20260902031635 | 71 | 0.0 | 0.0 | 0.00 | 0.06 | 0.06 | 80 | 1019.5 | |
| 20260902030515 | 71 | 0.0 | 0.0 | 0.00 | 0.06 | 0.06 | 80 | 1019.5 | |
| 20260902025555 | 72 | 0.0 | 0.0 | 0.00 | 0.06 | 0.06 | 79 | 1019.2 | |
| 20260902024555 | 72 | 0.0 | 0.0 | 0.00 | 0.06 | 0.06 | 78 | 1019.1 | |
| 20260902023515 | 72 | 0.0 | 0.0 | 0.00 | 0.06 | 0.06 | 77 | 1018.7 | |
| 20260902022515 | 73 | 0.0 | 2.0 | 0.00 | 0.06 | 0.06 | 75 | 1018.5 | |
| 20260902021515 | 73 | 0.0 | 0.0 | 0.00 | 0.06 | 0.06 | 74 | 1017.9 | |
| 20260902020517 | 74 | 0 | 0.0 | 3.0 | 0.01 | 0.06 | 0.06 | 72 | 1017.7 |
| 20260902014517 | 75 | 0 | 2.0 | 5.0 | 0.01 | 0.06 | 0.06 | 70 | 1016.8 |
| 20260902013517 | 76 | 0 | 2.0 | 5.0 | 0.01 | 0.06 | 0.06 | 71 | 1016.6 |
| 20260902012557 | 76 | 0.0 | 0.0 | 0.01 | 0.06 | 0.06 | 69 | 1016.2 | |
| 20260902011637 | 76 | 0.0 | 3.0 | 0.01 | 0.06 | 0.06 | 69 | 1016.1 | |
| 20260902010635 | 77 | 0 | 2.0 | 5.0 | 0.00 | 0.05 | 0.05 | 67 | 1016.1 |
| 20260902005557 | 77 | 0 | 3.0 | 5.0 | 0.00 | 0.05 | 0.05 | 64 | 1016.0 |
| 20260902004516 | 77 | 0 | 2.0 | 5.0 | 0.00 | 0.05 | 0.05 | 65 | 1016.1 |
| 20260902003637 | 77 | 0 | 3.0 | 5.0 | 0.00 | 0.05 | 0.05 | 64 | 1016.2 |
| 20260902002516 | 77 | 0.0 | 1.0 | 0.00 | 0.05 | 0.05 | 64 | 1016.1 | |
| 20260902001516 | 76 | 0 | 1.0 | 3.0 | 0.00 | 0.05 | 0.05 | 65 | 1016.3 |
| 20260902000516 | 76 | 0 | 0.0 | 2.0 | 0.00 | 0.05 | 0.05 | 66 | 1016.4 |
| 20260901235516 | 76 | 0 | 1.0 | 2.0 | 0.00 | 0.05 | 0.05 | 66 | 1016.4 |
| 20260901230516 | 73 | 0 | 2.0 | 10.0 | 0.05 | 0.05 | 0.05 | 76 | 1015.4 |
| 20260901225636 | 72 | 0 | 4.0 | 10.0 | 0.05 | 0.05 | 0.05 | 75 | 1015.6 |
| 20260901224516 | 73 | 0 | 5.0 | 13.0 | 0.04 | 0.04 | 0.04 | 73 | 1015.4 |
| 20260901223556 | 77 | 359 | 6.0 | 14.0 | 0.03 | 0.03 | 0.03 | 62 | 1015.8 |
| 20260901222516 | 83 | 359 | 6.0 | 17.0 | 0.01 | 0.01 | 0.01 | 50 | 1016.2 |
| 20260901221516 | 89 | 0 | 8.0 | 21.0 | 0.00 | 0.00 | 0.00 | 35 | 1016.2 |
| 20260901220556 | 90 | 0 | 4.0 | 10.0 | 0.00 | 0.00 | 0.00 | 34 | 1015.8 |
| 20260901215516 | 91 | 0 | 4.0 | 10.0 | 0.00 | 0.00 | 0.00 | 33 | 1015.8 |
| 20260901214556 | 93 | 0 | 2.0 | 13.0 | 0.00 | 0.00 | 0.00 | 32 | 1016.2 |
| 20260901213556 | 93 | 0 | 3.0 | 14.0 | 0.00 | 0.00 | 0.00 | 33 | 1016.6 |
| 20260901212556 | 94 | 0 | 3.0 | 12.0 | 0.00 | 0.00 | 0.00 | 32 | 1016.7 |
| 20260901211636 | 93 | 0 | 4.0 | 11.0 | 0.00 | 0.00 | 0.00 | 32 | 1017.0 |
| 20260901210636 | 93 | 0 | 5.0 | 11.0 | 0.00 | 0.00 | 0.00 | 33 | 1017.2 |
| 20260901205556 | 92 | 0 | 4.0 | 14.0 | 0.00 | 0.00 | 0.00 | 34 | 1017.4 |
| 20260901204516 | 92 | 0 | 5.0 | 12.0 | 0.00 | 0.00 | 0.00 | 33 | 1017.6 |
| 20260901203636 | 93 | 0 | 6.0 | 14.0 | 0.00 | 0.00 | 0.00 | 33 | 1018.1 |
| 20260901202516 | 90 | 0 | 3.0 | 12.0 | 0.00 | 0.00 | 0.00 | 36 | 1017.8 |
| 20260901201556 | 92 | 0 | 8.0 | 17.0 | 0.00 | 0.00 | 0.00 | 34 | 1018.3 |
| 20260901195516 | 92 | 0 | 3.0 | 10.0 | 0.00 | 0.00 | 0.00 | 36 | 1018.7 |
| 20260901193636 | 91 | 0 | 3.0 | 11.0 | 0.00 | 0.00 | 0.00 | 37 | 1018.9 |
| 20260901191556 | 89 | 0 | 3.0 | 12.0 | 0.00 | 0.00 | 0.00 | 40 | 1019.3 |
| 20260901190516 | 88 | 0 | 3.0 | 12.0 | 0.00 | 0.00 | 0.00 | 41 | 1019.5 |
| 20260901185556 | 88 | 0 | 7.0 | 16.0 | 0.00 | 0.00 | 0.00 | 39 | 1019.6 |
| 20260901184516 | 88 | 0 | 3.0 | 9.0 | 0.00 | 0.00 | 0.00 | 40 | 1019.7 |
| 20260901183516 | 90 | 0 | 4.0 | 15.0 | 0.00 | 0.00 | 0.00 | 38 | 1020.3 |
| 20260901182516 | 90 | 0 | 2.0 | 10.0 | 0.00 | 0.00 | 0.00 | 39 | 1020.6 |
| 20260901181516 | 89 | 0 | 4.0 | 14.0 | 0.00 | 0.00 | 0.00 | 39 | 1020.7 |
| 20260901180516 | 89 | 0 | 3.0 | 6.0 | 0.00 | 0.00 | 0.00 | 40 | 1021.1 |
| 20260901175515 | 88 | 0 | 3.0 | 9.0 | 0.00 | 0.00 | 0.00 | 41 | 1021.2 |
| 20260901174516 | 87 | 0 | 4.0 | 8.0 | 0.00 | 0.00 | 0.00 | 42 | 1021.0 |
| 20260901173515 | 86 | 0 | 5.0 | 11.0 | 0.00 | 0.00 | 0.00 | 42 | 1021.3 |
| 20260901172636 | 86 | 0 | 4.0 | 10.0 | 0.00 | 0.00 | 0.00 | 43 | 1021.5 |
| 20260901171515 | 87 | 0 | 5.0 | 15.0 | 0.00 | 0.00 | 0.00 | 42 | 1021.7 |
| 20260901170515 | 86 | 0 | 3.0 | 10.0 | 0.00 | 0.00 | 0.00 | 43 | 1021.9 |
| 20260901162515 | 85 | 0 | 3.0 | 8.0 | 0.00 | 0.00 | 0.00 | 44 | 1021.9 |
| 20260901161636 | 84 | 0 | 3.0 | 6.0 | 0.00 | 0.00 | 0.00 | 45 | 1021.9 |
| 20260901160515 | 83 | 0 | 2.0 | 9.0 | 0.00 | 0.00 | 0.00 | 46 | 1021.7 |
| 20260901155515 | 82 | 0 | 4.0 | 12.0 | 0.00 | 0.00 | 0.00 | 46 | 1021.6 |
| 20260901154515 | 82 | 0 | 3.0 | 9.0 | 0.00 | 0.00 | 0.00 | 46 | 1021.5 |
| 20260901153635 | 82 | 0 | 2.0 | 5.0 | 0.00 | 0.00 | 0.00 | 46 | 1021.8 |
| 20260901152635 | 81 | 0 | 3.0 | 6.0 | 0.00 | 0.00 | 0.00 | 46 | 1021.7 |
| 20260901151515 | 80 | 0 | 3.0 | 8.0 | 0.00 | 0.00 | 0.00 | 47 | 1021.7 |
| 20260901150515 | 79 | 0 | 2.0 | 10.0 | 0.00 | 0.00 | 0.00 | 48 | 1021.7 |
| 20260901145515 | 79 | 0 | 2.0 | 9.0 | 0.00 | 0.00 | 0.00 | 47 | 1021.7 |
| 20260901144515 | 78 | 0 | 2.0 | 4.0 | 0.00 | 0.00 | 0.00 | 48 | 1021.5 |
| 20260901143555 | 78 | 0 | 2.0 | 4.0 | 0.00 | 0.00 | 0.00 | 48 | 1021.8 |
| 20260901140555 | 73 | 0.0 | 0.0 | 0.00 | 0.00 | 0.00 | 54 | 1021.3 | |
| 20260901135515 | 71 | 0.0 | 1.0 | 0.00 | 0.00 | 0.00 | 58 | 1021.2 | |
| 20260901134555 | 68 | 0 | 0.0 | 1.0 | 0.00 | 0.00 | 0.00 | 61 | 1020.8 |
| 20260901133515 | 67 | 0 | 0.0 | 2.0 | 0.00 | 0.00 | 0.00 | 64 | 1020.4 |
| 20260901132635 | 65 | 0.0 | 0.0 | 0.00 | 0.00 | 0.00 | 67 | 1019.9 | |
| 20260901131515 | 64 | 0.0 | 0.0 | 0.00 | 0.00 | 0.00 | 66 | 1019.6 | |
| 20260901130515 | 63 | 0.0 | 0.0 | 0.00 | 0.00 | 0.00 | 66 | 1019.5 | |
| 20260901125515 | 63 | 0.0 | 0.0 | 0.00 | 0.00 | 0.00 | 63 | 1019.4 | |
| 20260901123635 | 64 | 0.0 | 1.0 | 0.00 | 0.00 | 0.00 | 63 | 1019.6 | |
| 20260901122515 | 64 | 0 | 0.0 | 1.0 | 0.00 | 0.00 | 0.00 | 62 | 1019.5 |
| 20260901121515 | 65 | 0.0 | 0.0 | 0.00 | 0.00 | 0.00 | 62 | 1019.7 | |
| 20260901120635 | 65 | 0.0 | 2.0 | 0.00 | 0.00 | 0.00 | 62 | 1019.7 | |
| 20260901115635 | 65 | 0.0 | 0.0 | 0.00 | 0.00 | 0.00 | 62 | 1019.9 | |
| 20260901113555 | 66 | 0.0 | 0.0 | 0.00 | 0.00 | 0.00 | 61 | 1020.2 | |
| 20260901112555 | 66 | 0.0 | 0.0 | 0.00 | 0.00 | 0.00 | 60 | 1020.0 | |
| 20260901111635 | 66 | 0.0 | 0.0 | 0.00 | 0.00 | 0.00 | 61 | 1019.9 | |
| 20260901110557 | 66 | 0.0 | 0.0 | 0.00 | 0.00 | 0.00 | 60 | 1020.2 | |
| 20260901105517 | 66 | 0.0 | 0.0 | 0.00 | 0.00 | 0.00 | 61 | 1020.1 | |
| 20260901104557 | 66 | 0.0 | 0.0 | 0.00 | 0.00 | 0.00 | 59 | 1020.0 | |
| 20260901103557 | 67 | 0.0 | 0.0 | 0.00 | 0.00 | 0.00 | 59 | 1019.9 | |
| 20260901102557 | 66 | 0.0 | 2.0 | 0.00 | 0.00 | 0.00 | 60 | 1019.8 | |
| 20260901101516 | 65 | 0 | 0.0 | 2.0 | 0.00 | 0.00 | 0.00 | 61 | 1019.7 |
| 20260901095517 | 64 | 0.0 | 0.0 | 0.00 | 0.00 | 0.00 | 59 | 1019.4 | |
| 20260901094637 | 64 | 0.0 | 0.0 | 0.00 | 0.00 | 0.00 | 59 | 1019.4 | |
| 20260901093557 | 65 | 0.0 | 0.0 | 0.00 | 0.00 | 0.00 | 57 | 1019.5 | |
| 20260901092556 | 65 | 0.0 | 0.0 | 0.00 | 0.00 | 0.00 | 58 | 1019.6 | |
| 20260901091517 | 65 | 0.0 | 0.0 | 0.00 | 0.00 | 0.00 | 57 | 1019.7 | |
| 20260901090556 | 66 | 0.0 | 0.0 | 0.00 | 0.00 | 0.00 | 56 | 1019.7 | |
| 20260901085556 | 66 | 0.0 | 0.0 | 0.00 | 0.00 | 0.00 | 55 | 1019.7 | |
| 20260901084516 | 67 | 0.0 | 0.0 | 0.00 | 0.00 | 0.00 | 55 | 1019.7 | |
| 20260901083516 | 67 | 0.0 | 0.0 | 0.00 | 0.00 | 0.00 | 55 | 1019.7 | |
| 20260901082636 | 67 | 0.0 | 0.0 | 0.00 | 0.00 | 0.00 | 54 | 1019.7 | |
| 20260901081516 | 68 | 0.0 | 0.0 | 0.00 | 0.00 | 0.00 | 53 | 1019.8 | |
| 20260901075516 | 69 | 0.0 | 0.0 | 0.00 | 0.00 | 0.00 | 51 | 1019.9 | |
| 20260901074556 | 69 | 0.0 | 0.0 | 0.00 | 0.00 | 0.00 | 51 | 1020.0 | |
| 20260901073516 | 70 | 0.0 | 0.0 | 0.00 | 0.00 | 0.00 | 51 | 1020.0 | |
| 20260901071516 | 71 | 0.0 | 0.0 | 0.00 | 0.00 | 0.00 | 49 | 1020.1 | |
| 20260901070636 | 72 | 0.0 | 0.0 | 0.00 | 0.00 | 0.00 | 48 | 1020.1 | |
| 20260901065516 | 72 | 0.0 | 0.0 | 0.00 | 0.00 | 0.00 | 47 | 1020.1 | |
| 20260901064556 | 73 | 0.0 | 0.0 | 0.00 | 0.00 | 0.00 | 46 | 1020.2 | |
| 20260901063556 | 73 | 0 | 1.0 | 3.0 | 0.00 | 0.00 | 0.00 | 46 | 1020.2 |
| 20260901062516 | 74 | 0 | 0.0 | 2.0 | 0.00 | 0.00 | 0.00 | 45 | 1020.1 |
| 20260901061516 | 75 | 0 | 1.0 | 2.0 | 0.00 | 0.00 | 0.00 | 44 | 1020.2 |
| 20260901060516 | 76 | 0 | 0.0 | 1.0 | 0.00 | 0.00 | 0.00 | 43 | 1020.2 |
| 20260901055515 | 77 | 0 | 0.0 | 1.0 | 0.00 | 0.00 | 0.00 | 41 | 1020.0 |